Previsão horária em Abancay

Hoje, 11 Abril, Domingo

Tempo Temperatura Precipitação Vento Pressão Humidade
00:00 +12°C° 0.1 mm 1 m/s 542 mmHg 97%
01:00 +13°C° 0.1 mm 1 m/s 542 mmHg 97%
02:00 +12°C° 0.1 mm 0 m/s 542 mmHg 97%
03:00 +11°C° 0.1 mm 0 m/s 542 mmHg 97%
04:00 +11°C° 0.1 mm 0 m/s 542 mmHg 97%
05:00 +11°C° 0.1 mm 0 m/s 542 mmHg 96%
06:00 +12°C° 0.1 mm 0 m/s 543 mmHg 95%
07:00 +12°C° 0.1 mm 0 m/s 543 mmHg 94%
08:00 +12°C° 0.1 mm 0 m/s 543 mmHg 90%
09:00 +14°C° 0.1 mm 1 m/s 544 mmHg 86%
10:00 +15°C° 0.1 mm 1 m/s 544 mmHg 83%
11:00 +15°C° 0.6 mm 1 m/s 544 mmHg 81%
12:00 +16°C° 0.6 mm 2 m/s 544 mmHg 79%
13:00 +17°C° 0.6 mm 2 m/s 543 mmHg 78%
14:00 +16°C° 0.5 mm 2 m/s 543 mmHg 80%
15:00 +16°C° 0.5 mm 2 m/s 542 mmHg 82%
16:00 +15°C° 0.5 mm 1 m/s 542 mmHg 84%
17:00 +14°C° 0 mm 1 m/s 542 mmHg 87%
18:00 +13°C° 0 mm 1 m/s 542 mmHg 90%
19:00 +11°C° 0 mm 0 m/s 542 mmHg 92%
20:00 +11°C° 0 mm 0 m/s 542 mmHg 93%
21:00 +11°C° 0 mm 0 m/s 543 mmHg 94%
22:00 +12°C° 0 mm 1 m/s 543 mmHg 94%
23:00 +11°C° 0.2 mm 0 m/s 543 mmHg 94%

Amanhã, 12 Abril, Segunda-feira

Tempo Temperatura Precipitação Vento Pressão Humidade
00:00 +11°C° 0.2 mm 0 m/s 543 mmHg 95%
01:00 +11°C° 0.2 mm 0 m/s 543 mmHg 95%
02:00 +11°C° 0.3 mm 0 m/s 543 mmHg 95%
03:00 +11°C° 0.3 mm 0 m/s 543 mmHg 94%
04:00 +11°C° 0.3 mm 0 m/s 543 mmHg 94%
05:00 +12°C° 0.1 mm 0 m/s 543 mmHg 92%
06:00 +12°C° 0.1 mm 0 m/s 544 mmHg 90%
07:00 +12°C° 0.1 mm 0 m/s 544 mmHg 88%
08:00 +14°C° 0.1 mm 1 m/s 545 mmHg 83%
09:00 +15°C° 0.1 mm 1 m/s 545 mmHg 78%
10:00 +16°C° 0.1 mm 1 m/s 546 mmHg 73%
11:00 +17°C° 0.4 mm 2 m/s 545 mmHg 72%
12:00 +18°C° 0.4 mm 2 m/s 545 mmHg 70%
13:00 +18°C° 0.4 mm 2 m/s 545 mmHg 69%
14:00 +18°C° 0.5 mm 2 m/s 544 mmHg 72%
15:00 +17°C° 0.5 mm 2 m/s 544 mmHg 76%
16:00 +16°C° 0.5 mm 2 m/s 543 mmHg 80%
17:00 +15°C° 0.4 mm 2 m/s 543 mmHg 85%
18:00 +14°C° 0.4 mm 2 m/s 543 mmHg 91%
19:00 +13°C° 0.4 mm 1 m/s 543 mmHg 96%
20:00 +13°C° 0.1 mm 1 m/s 544 mmHg 96%
21:00 +12°C° 0.1 mm 1 m/s 544 mmHg 96%
22:00 +12°C° 0.1 mm 1 m/s 544 mmHg 97%
23:00 +12°C° 0 mm 1 m/s 544 mmHg 96%

Depois de amanhã, 13 Abril, Terça-feira

Tempo Temperatura Precipitação Vento Pressão Humidade
00:00 +12°C° 0 mm 1 m/s 544 mmHg 96%
01:00 +12°C° 0 mm 1 m/s 544 mmHg 95%
02:00 +12°C° 0 mm 1 m/s 544 mmHg 95%
03:00 +12°C° 0 mm 1 m/s 544 mmHg 95%
04:00 +11°C° 0 mm 0 m/s 544 mmHg 94%
05:00 +11°C° 0 mm 0 m/s 544 mmHg 93%
06:00 +11°C° 0 mm 0 m/s 544 mmHg 91%
07:00 +12°C° 0 mm 0 m/s 545 mmHg 90%
08:00 +14°C° 0 mm 1 m/s 545 mmHg 83%
09:00 +16°C° 0 mm 1 m/s 546 mmHg 77%
10:00 +17°C° 0 mm 2 m/s 547 mmHg 71%
11:00 +18°C° 0.3 mm 2 m/s 546 mmHg 69%
12:00 +18°C° 0.3 mm 2 m/s 546 mmHg 68%
13:00 +19°C° 0.3 mm 3 m/s 545 mmHg 67%
14:00 +18°C° 0.2 mm 3 m/s 545 mmHg 70%
15:00 +17°C° 0.2 mm 3 m/s 544 mmHg 72%
16:00 +17°C° 0.2 mm 2 m/s 544 mmHg 75%
17:00 +16°C° 0.1 mm 2 m/s 544 mmHg 81%
18:00 +14°C° 0.1 mm 2 m/s 544 mmHg 87%
19:00 +13°C° 0.1 mm 2 m/s 544 mmHg 93%
20:00 +13°C° 0 mm 1 m/s 544 mmHg 94%
21:00 +13°C° 0 mm 1 m/s 545 mmHg 94%
22:00 +13°C° 0 mm 1 m/s 545 mmHg 95%
23:00 +12°C° 0 mm 0 m/s 545 mmHg 95%

14 Abril, Quarta-feira

Tempo Temperatura Precipitação Vento Pressão Humidade
00:00 +11°C° 0 mm 0 m/s 544 mmHg 95%
01:00 +11°C° 0 mm 0 m/s 544 mmHg 94%
02:00 +11°C° 0 mm 0 m/s 544 mmHg 93%
03:00 +11°C° 0 mm 0 m/s 544 mmHg 92%
04:00 +11°C° 0 mm 0 m/s 543 mmHg 90%
05:00 +11°C° 0 mm 0 m/s 544 mmHg 89%
06:00 +12°C° 0 mm 0 m/s 544 mmHg 87%
07:00 +12°C° 0 mm 0 m/s 545 mmHg 86%
08:00 +14°C° 0 mm 1 m/s 545 mmHg 81%
09:00 +15°C° 0 mm 1 m/s 546 mmHg 75%
10:00 +18°C° 0 mm 1 m/s 546 mmHg 70%
11:00 +19°C° 0.2 mm 1 m/s 546 mmHg 66%
12:00 +19°C° 0.2 mm 2 m/s 546 mmHg 62%
13:00 +19°C° 0.2 mm 2 m/s 545 mmHg 59%
14:00 +19°C° 0.2 mm 2 m/s 544 mmHg 61%
15:00 +19°C° 0.2 mm 2 m/s 544 mmHg 62%
16:00 +19°C° 0.2 mm 2 m/s 543 mmHg 64%
17:00 +17°C° 0.1 mm 2 m/s 543 mmHg 72%
18:00 +15°C° 0.1 mm 2 m/s 543 mmHg 80%
19:00 +13°C° 0.1 mm 1 m/s 542 mmHg 89%
20:00 +13°C° 0.4 mm 1 m/s 543 mmHg 91%
21:00 +13°C° 0.4 mm 1 m/s 543 mmHg 93%
22:00 +12°C° 0.4 mm 1 m/s 543 mmHg 95%
23:00 +12°C° 0.2 mm 1 m/s 543 mmHg 95%

15 Abril, Quinta-feira

Tempo Temperatura Precipitação Vento Pressão Humidade
00:00 +12°C° 0.2 mm 1 m/s 543 mmHg 95%
01:00 +12°C° 0.2 mm 1 m/s 543 mmHg 95%
02:00 +12°C° 0 mm 1 m/s 543 mmHg 95%
03:00 +12°C° 0 mm 1 m/s 543 mmHg 94%
04:00 +11°C° 0 mm 0 m/s 543 mmHg 94%
05:00 +12°C° 0 mm 0 m/s 543 mmHg 93%
06:00 +12°C° 0 mm 0 m/s 544 mmHg 92%
07:00 +12°C° 0 mm 0 m/s 544 mmHg 90%
08:00 +14°C° 0 mm 1 m/s 544 mmHg 85%
09:00 +15°C° 0 mm 1 m/s 545 mmHg 79%
10:00 +17°C° 0 mm 2 m/s 546 mmHg 74%
11:00 +18°C° 0.1 mm 2 m/s 545 mmHg 70%
12:00 +19°C° 0.1 mm 2 m/s 545 mmHg 66%
13:00 +19°C° 0.1 mm 2 m/s 544 mmHg 62%
14:00 +19°C° 0.2 mm 2 m/s 544 mmHg 63%
15:00 +19°C° 0.2 mm 2 m/s 543 mmHg 64%
16:00 +19°C° 0.2 mm 2 m/s 543 mmHg 65%
17:00 +17°C° 0.3 mm 2 m/s 543 mmHg 73%
18:00 +15°C° 0.3 mm 2 m/s 542 mmHg 81%
19:00 +13°C° 0.3 mm 2 m/s 542 mmHg 89%
20:00 +13°C° 0.5 mm 2 m/s 542 mmHg 90%
21:00 +13°C° 0.5 mm 2 m/s 543 mmHg 92%
22:00 +12°C° 0.5 mm 1 m/s 543 mmHg 93%
23:00 +12°C° 0.1 mm 1 m/s 543 mmHg 94%

16 Abril, Sexta-feira

Tempo Temperatura Precipitação Vento Pressão Humidade
00:00 +12°C° 0.1 mm 1 m/s 543 mmHg 94%
01:00 +12°C° 0.1 mm 1 m/s 543 mmHg 94%
02:00 +12°C° 0.1 mm 1 m/s 543 mmHg 94%
03:00 +11°C° 0.1 mm 0 m/s 543 mmHg 93%
04:00 +11°C° 0.1 mm 0 m/s 543 mmHg 93%
05:00 +12°C° 0 mm 0 m/s 543 mmHg 92%
06:00 +12°C° 0 mm 0 m/s 543 mmHg 90%
07:00 +12°C° 0 mm 0 m/s 544 mmHg 89%
08:00 +13°C° 0 mm 0 m/s 544 mmHg 84%
09:00 +14°C° 0 mm 0 m/s 545 mmHg 79%
10:00 +16°C° 0 mm 1 m/s 546 mmHg 74%
11:00 +18°C° 0 mm 1 m/s 545 mmHg 69%
12:00 +19°C° 0 mm 1 m/s 545 mmHg 64%
13:00 +20°C° 0 mm 1 m/s 545 mmHg 59%
14:00 +19°C° 0 mm 2 m/s 544 mmHg 60%
15:00 +19°C° 0 mm 2 m/s 544 mmHg 60%
16:00 +19°C° 0 mm 2 m/s 543 mmHg 60%
17:00 +18°C° 0.1 mm 1 m/s 543 mmHg 68%
18:00 +15°C° 0.1 mm 1 m/s 542 mmHg 76%
19:00 +13°C° 0.1 mm 1 m/s 542 mmHg 84%
20:00 +13°C° 0 mm 1 m/s 542 mmHg 86%
21:00 +12°C° 0 mm 1 m/s 542 mmHg 88%
22:00 +12°C° 0 mm 1 m/s 543 mmHg 90%
23:00 +12°C° 0 mm 1 m/s 543 mmHg 90%
Mostrar mais